Regional Weather Roundup
Issued by NWS

Home | Current Version | Previous Version | Text Only | Print | Product List | Glossary On
Versions: 1 2 3 4 5 6 7 8 9 10 11 12 13 14 15 16 17 18 19 20 21 22 23 24 25 26 27 28 29 30 31 32 33 34 35 36 37 38 39 40 41 42 43 44 45 46 47 48 49 50
000
ASUS43 KDTX 260901
RWRMI
MICHIGAN HOURLY REGIONAL WEATHER ROUNDUP
NATIONAL WEATHER SERVICE DETROIT/PONTIAC MI
500 AM EDT MON JUN 26 2017

NOTE: "FAIR" INDICATES FEW OR NO CLOUDS BELOW 12,000 FEET WITH NO
SIGNIFICANT WEATHER AND/OR OBSTRUCTION TO VISIBILITY.

MIZ047>049-052>055-059>063-066>070-074>076-081>083-261000-
SOUTHEAST LOWER MICHIGAN

CITY           SKY/WX    TMP DP  RH WIND       PRES   REMARKS
ADRIAN         CLEAR     54  48  80 W5        30.05S
ALMA           CLOUDY    56  53  89 W12G17    30.01R
ANN ARBOR      CLEAR     47  45  93 SW5       30.02S
BAD AXE        LGT RAIN  56  54  92 W5        29.97S
CARO           CLOUDY    52  51  97 CALM      29.97S
DETROIT CITY   CLEAR     57  47  69 W6        30.01S
DETROIT        MOCLDY    56  48  74 SW8       30.03R
FLINT          MOCLDY    55  50  83 SW7       30.01R
GROSSE ILE     CLEAR     57  47  71 W7        30.01S
HILLSDALE      CLEAR     52  48  87 W3        30.04R
HOWELL         CLEAR     53  48  83 W7        30.02R

CITY           SKY/WX    TMP DP  RH WIND       PRES   REMARKS
JACKSON        CLEAR     55  50  83 W8        30.04R
LAMBERTVILLE   MOCLDY    57  49  74 CALM      30.03S
LANSING        PTCLDY    56  50  80 W8        30.03R
LAPEER         FAIR      55  49  82 SW6       30.00S
MASON          CLEAR     55  51  87 W5        30.03S
MONROE         CLEAR     55  48  78 W5        30.02S
MT. CLEMENS    CLEAR     55  49  80 SW6       29.98S
PONTIAC        CLEAR     53  50  89 W6        30.00S
PORT HOPE        N/A     57  53  86 SW3       29.94S
PORT HURON     CLEAR     54  50  87 CALM      30.00R
TRI CITIES     CLOUDY    57  54  89 W8        29.99S
MIDLAND        CLOUDY    55  52  89 SW6       29.98R
TROY           CLEAR     55  47  76 W3        30.02F
SAGINAW HB     CLOUDY    55  50  82 SW6       29.98S
$$
MIZ043>046-050>051-056>058-064>065-071>073-077>080-261000-
SOUTHWEST LOWER MICHIGAN

CITY           SKY/WX    TMP DP  RH WIND       PRES   REMARKS
BATTLE CREEK   PTCLDY    53  51  93 W8        30.05S
BENTON HARBOR  CLEAR     61  49  64 NW13G20   30.07R
BIG RAPIDS     CLOUDY    54  51  89 W7        29.99R
COLDWATER      CLEAR     55  51  84 W7        30.05S
FREMONT        FAIR      53  52  95 W5        30.01R
HOLLAND        PTCLDY    58  51  78 W5        30.05R
GRAND RAPIDS   PTCLDY    55  53  93 W7        30.03R
IONIA          FAIR      52  50  93 W7        30.02R
KALAMAZOO      MOCLDY    54  49  83 SW6       30.05S
LUDINGTON      MOCLDY    55  49  80 NW9G18    30.00R
MARSHALL       CLEAR     52  51  97 SW5       30.04S
MOUNT PLEASANT MOCLDY    54  51  91 W6        29.98S
MUSKEGON       CLEAR     58  49  72 W12       30.03R
SOUTH HAVEN    PTCLDY    60  53  77 NW9G17    30.06R
$$
MIZ016>042-261000-
NORTHERN LOWER MICHIGAN

CITY           SKY/WX    TMP DP  RH WIND       PRES   REMARKS
ALPENA         CLOUDY    55  55 100 CALM      29.94F
BEAVER ISLAND  RAIN      55  55  98 W3        29.93S
BELLAIRE       RAIN      55  53  92 CALM      29.93F
CADILLAC       CLOUDY    53  51  93 W7        29.96S
CHARLEVOIX     CLOUDY    55  55 100 CALM      29.95S
FRANKFORT      CLOUDY    56  50  79 W13G20    29.95S
GAYLORD        CLOUDY    52  49  89 S5        29.94S
GRAYLING       CLOUDY    54  52  94 SW5       29.95F
HARBOR SPRINGS DRIZZLE   55  55 100 CALM      29.93S
HOUGHTON LAKE  CLOUDY    55  52  89 SW8       29.96S
MANISTEE       CLOUDY    55  50  83 W16       29.98R
OSCODA         CLOUDY    53  52  96 SW5       29.94S
PELLSTON       CLOUDY    53  51  93 S3        29.93S
ROGERS CITY    MOCLDY    55  54  95 CALM      29.94S
TRAVERSE CITY  LGT RAIN  57  54  89 VRB5      29.92F FOG
$$
MIZ007>008-015-261000-
EASTERN UPPER MICHIGAN

CITY           SKY/WX    TMP DP  RH WIND       PRES   REMARKS
KINROSS        CLOUDY    53  52  96 NE5       29.93F
MACKINAC ISLAN RAIN      54  54 100 NE6       29.93S
NEWBERRY       LGT RAIN  48  47  97 NW3       29.94S
S. S. MARIE    CLOUDY    54  51  90 E3        29.93F
MUNISING         N/A     50  49  96 NE16      29.95S
$$
MIZ004>006-011>014-085-261000-
CENTRAL UPPER MICHIGAN

CITY           SKY/WX    TMP DP  RH WIND       PRES   REMARKS
MANISTIQUE     DRIZZLE   50  47  89 N9        29.93F
ESCANABA       CLOUDY    52  51  97 W5        29.95S
MENOMINEE      CLEAR     48  47  96 VRB3      29.99S
SAWYER-GWINN   CLOUDY    50  49  96 NE6       29.95S
$$
MIZ001>003-009>011-084-261000-
WESTERN UPPER MICHIGAN

CITY           SKY/WX    TMP DP  RH WIND       PRES   REMARKS
IRON MOUNTAIN  CLOUDY    49  45  86 W5        29.95F
HOUGHTON       LGT RAIN  48  45  89 N15       29.96S
COPPER HARBOR    N/A     49  48  97 VRB3      29.97S
IRONWOOD       RAIN      46  45  96 NW14      30.04S FOG
$$

ABBREVIATIONS USED IN REMARKS
   TC - TEMPERATURE IN CELSIUS
  WCI - WIND CHILL INDEX
   HX - HEAT INDEX
  VSB - VISIBILITY




USA.gov is the U.S. government's official web portal to all federal, state and local government web resources and services.